WZZ411 LHBP-LRTM

Flight info

Callsign WZZ411
Flight time 0h 41m
Altitude 35000
Route VETIK DCT UVERA DCT RILAS DCT LARMU
Aircraft A321/M-SDE1E2E3FGIJ1J4RWXY/LB1

Departure

Time 2026-04-20 06:22
Airport Budapest Liszt Ferenc International Airport (LHBP)

Arrival

Time 2026-04-20 07:04
Airport Târgu Mureş Transilvania International Airport (LRTM)
Time Latitude Longitude Altitude Speed Heading
2026-04-20 05:58 47.43363 19.25556 457 ft 0 kts 311°
2026-04-20 06:07 47.43362 19.25556 458 ft 0 kts 311°
2026-04-20 06:12 47.43362 19.25557 457 ft 0 kts 311°
2026-04-20 06:17 47.43358 19.25564 456 ft 4 kts 309°
2026-04-20 06:17 47.43345 19.25597 455 ft 4 kts 279°
2026-04-20 06:17 47.43347 19.25632 456 ft 4 kts 233°
2026-04-20 06:18 47.43355 19.25646 457 ft 1 kts 222°
2026-04-20 06:18 47.43356 19.25647 457 ft 2 kts 222°
2026-04-20 06:19 47.43352 19.25642 457 ft 3 kts 222°
2026-04-20 06:20 47.43316 19.25590 457 ft 9 kts 224°
2026-04-20 06:20 47.43299 19.25517 457 ft 7 kts 286°
2026-04-20 06:20 47.43324 19.25463 456 ft 6 kts 311°
2026-04-20 06:20 47.43340 19.25421 457 ft 4 kts 287°
2026-04-20 06:21 47.43337 19.25387 457 ft 4 kts 246°
2026-04-20 06:21 47.43284 19.25304 457 ft 18 kts 221°
2026-04-20 06:21 47.43182 19.25167 456 ft 21 kts 223°
2026-04-20 06:21 47.43104 19.25025 458 ft 17 kts 255°
2026-04-20 06:22 47.43152 19.24860 457 ft 24 kts 309°
2026-04-20 06:22 47.43437 19.24399 452 ft 101 kts 312°
2026-04-20 06:22 47.44049 19.23408 645 ft 145 kts 312°
2026-04-20 06:22 47.44726 19.22337 1551 ft 141 kts 315°
2026-04-20 06:23 47.45400 19.21277 2221 ft 150 kts 314°
2026-04-20 06:23 47.46159 19.20052 2620 ft 172 kts 314°
2026-04-20 06:23 47.47017 19.18659 2944 ft 195 kts 314°
2026-04-20 06:23 47.47972 19.17110 3613 ft 207 kts 315°
2026-04-20 06:24 47.49083 19.15615 4284 ft 225 kts 326°
2026-04-20 06:24 47.50582 19.14794 5082 ft 239 kts 352°
2026-04-20 06:24 47.52249 19.15301 5945 ft 258 kts 24°
2026-04-20 06:24 47.53516 19.17244 6784 ft 280 kts 58°
2026-04-20 06:25 47.53987 19.20117 7584 ft 296 kts 83°
2026-04-20 06:25 47.53967 19.23209 8446 ft 303 kts 93°
2026-04-20 06:25 47.53746 19.26353 9300 ft 310 kts 97°
2026-04-20 06:25 47.53465 19.29543 10139 ft 315 kts 98°
2026-04-20 06:26 47.53184 19.32867 10568 ft 337 kts 97°
2026-04-20 06:26 47.52928 19.36393 10965 ft 355 kts 95°
2026-04-20 06:26 47.52705 19.40084 11671 ft 363 kts 94°
2026-04-20 06:26 47.52513 19.43830 12461 ft 367 kts 94°
2026-04-20 06:27 47.52337 19.47639 13275 ft 372 kts 93°
2026-04-20 06:27 47.52169 19.51432 14013 ft 376 kts 93°
2026-04-20 06:27 47.51992 19.55316 14707 ft 381 kts 93°
2026-04-20 06:27 47.51807 19.59256 15419 ft 385 kts 94°
2026-04-20 06:28 47.51614 19.63231 16146 ft 389 kts 94°
2026-04-20 06:28 47.51414 19.67255 16873 ft 393 kts 94°
2026-04-20 06:28 47.51212 19.71265 17579 ft 397 kts 94°
2026-04-20 06:28 47.51003 19.75377 18284 ft 402 kts 95°
2026-04-20 06:29 47.50790 19.79533 18909 ft 406 kts 95°
2026-04-20 06:29 47.50575 19.83711 19553 ft 409 kts 95°
2026-04-20 06:29 47.50356 19.87933 20210 ft 413 kts 95°
2026-04-20 06:29 47.50133 19.92180 20868 ft 416 kts 95°
2026-04-20 06:30 47.49907 19.96464 21513 ft 419 kts 95°
2026-04-20 06:30 47.49683 20.00731 22159 ft 422 kts 95°
2026-04-20 06:30 47.49453 20.05087 22858 ft 425 kts 96°
2026-04-20 06:30 47.49219 20.09462 23499 ft 428 kts 96°
2026-04-20 06:31 47.48979 20.13872 24021 ft 431 kts 96°
2026-04-20 06:31 47.48737 20.18261 24527 ft 434 kts 96°
2026-04-20 06:31 47.48491 20.22725 25035 ft 437 kts 96°
2026-04-20 06:31 47.48244 20.27229 25533 ft 440 kts 96°
2026-04-20 06:32 47.47996 20.31747 26038 ft 443 kts 96°
2026-04-20 06:32 47.47743 20.36323 26522 ft 446 kts 96°
2026-04-20 06:32 47.47487 20.40903 27001 ft 449 kts 97°
2026-04-20 06:32 47.47231 20.45472 27471 ft 452 kts 97°
2026-04-20 06:33 47.46968 20.50117 27935 ft 455 kts 97°
2026-04-20 06:33 47.46700 20.54787 28390 ft 458 kts 97°
2026-04-20 06:33 47.46423 20.59504 28837 ft 461 kts 97°
2026-04-20 06:33 47.46142 20.64242 29280 ft 464 kts 97°
2026-04-20 06:34 47.45859 20.69021 29721 ft 467 kts 97°
2026-04-20 06:34 47.45578 20.73760 30119 ft 470 kts 97°
2026-04-20 06:34 47.44998 20.83452 30805 ft 476 kts 97°
2026-04-20 06:35 47.44700 20.88344 31151 ft 479 kts 97°
2026-04-20 06:35 47.44400 20.93259 31498 ft 482 kts 96°
2026-04-20 06:35 47.44097 20.98200 31896 ft 483 kts 96°
2026-04-20 06:35 47.43793 21.03148 32392 ft 483 kts 96°
2026-04-20 06:36 47.43489 21.08026 32858 ft 482 kts 96°
2026-04-20 06:36 47.43177 21.12958 33333 ft 482 kts 96°
2026-04-20 06:36 47.42864 21.17897 33795 ft 482 kts 96°
2026-04-20 06:36 47.42551 21.22833 34204 ft 482 kts 95°
2026-04-20 06:37 47.42239 21.27765 34564 ft 482 kts 95°
2026-04-20 06:37 47.41921 21.32708 34840 ft 483 kts 95°
2026-04-20 06:37 47.41602 21.37637 34908 ft 477 kts 95°
2026-04-20 06:38 47.40975 21.47230 34919 ft 470 kts 95°
2026-04-20 06:38 47.40321 21.57020 34923 ft 489 kts 96°
2026-04-20 06:39 47.39639 21.67120 34917 ft 499 kts 96°
2026-04-20 06:39 47.38943 21.77327 34921 ft 499 kts 96°
2026-04-20 06:40 47.38243 21.87535 34917 ft 498 kts 96°
2026-04-20 06:40 47.37895 21.92549 34910 ft 483 kts 96°
2026-04-20 06:40 47.37551 21.97439 34857 ft 473 kts 96°
2026-04-20 06:40 47.37214 22.02188 34627 ft 469 kts 96°
2026-04-20 06:41 47.36871 22.06976 34387 ft 468 kts 96°
2026-04-20 06:41 47.36526 22.11769 34151 ft 468 kts 96°
2026-04-20 06:41 47.36182 22.16535 33905 ft 466 kts 96°
2026-04-20 06:41 47.35841 22.21222 33415 ft 463 kts 96°
2026-04-20 06:42 47.35498 22.25945 32903 ft 460 kts 96°
2026-04-20 06:42 47.35159 22.30621 32390 ft 457 kts 96°
2026-04-20 06:42 47.34818 22.35268 31880 ft 454 kts 97°
2026-04-20 06:42 47.34476 22.39882 31371 ft 451 kts 97°
2026-04-20 06:43 47.34139 22.44422 30867 ft 448 kts 97°
2026-04-20 06:43 47.33801 22.48984 30364 ft 445 kts 97°
2026-04-20 06:43 47.33462 22.53498 29846 ft 442 kts 97°
2026-04-20 06:43 47.33120 22.58006 29335 ft 438 kts 97°
2026-04-20 06:44 47.32690 22.62422 28864 ft 431 kts 104°
2026-04-20 06:44 47.32056 22.66672 28430 ft 426 kts 104°
2026-04-20 06:44 47.31420 22.70931 27985 ft 422 kts 104°
2026-04-20 06:44 47.30794 22.75134 27570 ft 418 kts 104°
2026-04-20 06:45 47.30173 22.79310 27147 ft 416 kts 104°
2026-04-20 06:45 47.29555 22.83480 26735 ft 413 kts 104°
2026-04-20 06:45 47.28953 22.87545 26341 ft 410 kts 104°
2026-04-20 06:45 47.28341 22.91644 25936 ft 407 kts 104°
2026-04-20 06:46 47.27732 22.95706 25527 ft 404 kts 104°
2026-04-20 06:46 47.27121 22.99752 25126 ft 402 kts 104°
2026-04-20 06:46 47.26513 23.03761 24713 ft 400 kts 104°
2026-04-20 06:46 47.25907 23.07749 24298 ft 397 kts 105°
2026-04-20 06:47 47.25032 23.11523 23888 ft 392 kts 117°
2026-04-20 06:47 47.23705 23.14992 23453 ft 386 kts 128°
2026-04-20 06:47 47.22003 23.18009 22990 ft 378 kts 139°
2026-04-20 06:47 47.20140 23.20718 22570 ft 374 kts 139°
2026-04-20 06:48 47.18300 23.23398 22156 ft 370 kts 139°
2026-04-20 06:48 47.16484 23.26049 21741 ft 367 kts 139°
2026-04-20 06:48 47.14705 23.28650 21318 ft 363 kts 139°
2026-04-20 06:48 47.12918 23.31258 20908 ft 360 kts 139°
2026-04-20 06:49 47.11148 23.33838 20489 ft 357 kts 139°
2026-04-20 06:49 47.09386 23.36403 20066 ft 355 kts 139°
2026-04-20 06:49 47.07633 23.38954 19627 ft 353 kts 138°
2026-04-20 06:49 47.05892 23.41485 19225 ft 351 kts 138°
2026-04-20 06:50 47.04180 23.43969 18818 ft 350 kts 138°
2026-04-20 06:50 47.02453 23.46469 18400 ft 348 kts 138°
2026-04-20 06:50 47.00727 23.48961 17955 ft 347 kts 138°
2026-04-20 06:50 46.99012 23.51438 17521 ft 345 kts 138°
2026-04-20 06:51 46.97309 23.53897 17117 ft 342 kts 138°
2026-04-20 06:51 46.95615 23.56336 16695 ft 340 kts 139°
2026-04-20 06:51 46.93926 23.58762 16294 ft 338 kts 139°
2026-04-20 06:51 46.92249 23.61174 15886 ft 336 kts 139°
2026-04-20 06:52 46.90603 23.63543 15485 ft 335 kts 139°
2026-04-20 06:52 46.88940 23.65936 15076 ft 333 kts 139°
2026-04-20 06:52 46.87289 23.68309 14677 ft 332 kts 139°
2026-04-20 06:52 46.85644 23.70668 14276 ft 331 kts 139°
2026-04-20 06:53 46.84018 23.72996 13877 ft 330 kts 139°
2026-04-20 06:53 46.82372 23.75354 13448 ft 330 kts 139°
2026-04-20 06:53 46.80737 23.77695 13038 ft 327 kts 139°
2026-04-20 06:53 46.79603 23.79119 12776 ft 323 kts 147°
2026-04-20 06:54 46.77151 23.81549 12259 ft 318 kts 150°
2026-04-20 06:54 46.75320 23.83349 11858 ft 315 kts 149°
2026-04-20 06:54 46.73509 23.85128 11483 ft 312 kts 149°
2026-04-20 06:54 46.72296 23.86319 11229 ft 311 kts 149°
2026-04-20 06:55 46.70503 23.88076 10847 ft 309 kts 149°
2026-04-20 06:55 46.68745 23.89800 10473 ft 306 kts 148°
2026-04-20 06:55 46.66981 23.91530 10096 ft 304 kts 148°
2026-04-20 06:55 46.65234 23.93242 9845 ft 298 kts 148°
2026-04-20 06:56 46.63550 23.94891 9558 ft 293 kts 148°
2026-04-20 06:56 46.61843 23.96560 9055 ft 295 kts 148°
2026-04-20 06:56 46.60141 23.98225 8603 ft 296 kts 148°
2026-04-20 06:56 46.58431 23.99891 8259 ft 292 kts 148°
2026-04-20 06:57 46.56769 24.01509 7998 ft 286 kts 148°
2026-04-20 06:57 46.55143 24.03096 7852 ft 276 kts 148°
2026-04-20 06:57 46.53578 24.04618 7732 ft 266 kts 150°
2026-04-20 06:57 46.51932 24.05703 7553 ft 255 kts 166°
2026-04-20 06:58 46.50238 24.06405 7275 ft 252 kts 167°
2026-04-20 06:58 46.48569 24.07095 6786 ft 247 kts 167°
2026-04-20 06:58 46.46921 24.07778 6244 ft 243 kts 167°
2026-04-20 06:58 46.45343 24.08436 5888 ft 230 kts 167°
2026-04-20 06:59 46.43892 24.09332 5529 ft 232 kts 150°
2026-04-20 06:59 46.42689 24.10915 4976 ft 234 kts 128°
2026-04-20 06:59 46.41958 24.13023 4701 ft 237 kts 106°
2026-04-20 06:59 46.41777 24.15392 4422 ft 237 kts 84°
2026-04-20 07:00 46.42133 24.17710 4125 ft 236 kts 72°
2026-04-20 07:00 46.42590 24.19995 3821 ft 235 kts 72°
2026-04-20 07:00 46.43037 24.22249 3501 ft 233 kts 72°
2026-04-20 07:00 46.43472 24.24456 3230 ft 220 kts 72°
2026-04-20 07:01 46.43875 24.26503 2918 ft 203 kts 72°
2026-04-20 07:01 46.44244 24.28376 2702 ft 180 kts 73°
2026-04-20 07:01 46.44570 24.30027 2435 ft 163 kts 74°
2026-04-20 07:01 46.44871 24.31561 2225 ft 154 kts 74°
2026-04-20 07:02 46.45160 24.33029 2005 ft 148 kts 74°
2026-04-20 07:02 46.45437 24.34441 1805 ft 144 kts 75°
2026-04-20 07:02 46.45706 24.35809 1622 ft 139 kts 75°
2026-04-20 07:02 46.45970 24.37150 1401 ft 137 kts 74°
2026-04-20 07:03 46.46221 24.38464 1200 ft 133 kts 73°
2026-04-20 07:03 46.46474 24.39731 1027 ft 132 kts 71°
2026-04-20 07:03 46.46713 24.40916 959 ft 102 kts 73°
2026-04-20 07:03 46.46859 24.41668 962 ft 53 kts 75°
2026-04-20 07:04 46.46923 24.42030 962 ft 24 kts 76°
2026-04-20 07:04 46.46951 24.42201 961 ft 10 kts 81°
2026-04-20 07:04 46.46908 24.42263 963 ft 8 kts 167°
2026-04-20 07:04 46.46902 24.42264 960 ft 0 kts 167°
2026-04-20 07:06 46.46890 24.42268 959 ft 5 kts 168°
2026-04-20 07:07 46.46837 24.42282 959 ft 8 kts 169°
2026-04-20 07:07 46.46817 24.42306 961 ft 2 kts 96°
2026-04-20 07:07 46.46815 24.42350 963 ft 5 kts 108°
2026-04-20 07:07 46.46802 24.42349 960 ft 1 kts 245°
2026-04-20 07:08 46.46804 24.42344 960 ft 0 kts 286°